Location: Głowno
(51.9557°N, 19.7113°E)
Time: 21:55:39
(UTC+02:00)

ISS - Visible Passes

Search period start: 20 September 2018 00:00
Search period end: 30 September 2018 00:00
Orbit: 403 x 408 km, 51.6° (Epoch: 20 September)

Date Brightness Start Highest point End Pass type
(mag) Time Alt. Az. Time Alt. Az. Time Alt. Az.
22 Sep -1.5 20:28:07 10° SSW 20:28:49 14° S 20:28:49 14° S visible
23 Sep -1.8 19:37:15 10° S 19:39:02 14° SE 19:39:35 13° SE visible
23 Sep -1.1 21:11:46 10° SW 21:12:17 14° SW 21:12:17 14° SW visible
24 Sep -3.0 20:20:09 10° SW 20:22:51 34° SSE 20:22:51 34° SSE visible
25 Sep -2.5 19:28:42 10° SSW 19:31:26 24° SSE 19:33:16 15° ESE visible
25 Sep -2.0 21:04:19 10° WSW 21:05:57 26° WSW 21:05:57 26° WSW visible
26 Sep -3.7 20:12:31 10° WSW 20:15:44 55° SSE 20:16:13 49° SE visible
26 Sep -0.5 21:48:52 10° W 21:48:54 10° W 21:48:54 10° W visible
27 Sep -3.2 19:20:47 10° SW 19:23:54 40° SSE 19:26:24 14° E visible
27 Sep -2.5 20:56:57 10° W 20:59:04 37° W 20:59:04 37° W visible
28 Sep -3.9 20:05:01 10° WSW 20:08:19 75° S 20:09:10 46° E visible
28 Sep -0.6 21:41:30 10° W 21:41:51 12° W 21:41:51 12° W visible
29 Sep -3.7 19:13:08 10° WSW 19:16:24 61° SSE 19:19:13 13° E visible
29 Sep -2.7 20:49:33 10° W 20:51:53 43° W 20:51:53 43° W visible
